Mobridge Municipal Airport
KMBG : rendu visible

Aérodrome :











RETROUVEZ-NOUS SUR...

 
LOGIN :

S'inscrire | Disclaimer

   EN    FR    IT 

 









Légende :    VFR   VFR Marginal   IFR   IFR Intensif   IFR Très Intensif
Visi : 
Plafond : 
>= 8 km
>= 3000ft
5 à 8 km
1000 à 3000 ft
1500m à 5 km
500 à 1000 ft
800 à 1500m
200 à 500 ft
< 800m
< 200 ft
Symboles :   Orages  Brouillard  Fortes neiges  Fortes précipitations  Vent > 20 kt






- Altitude de l'aérodrome : 1716 ft


KMBG - Mobridge Municipal

DERNIER METAR :
  • 290252Z AUTO 00000KT 10SM CLR 04/M02 A2980 RMK AO2 SLP101 T00441022 51020

METARs EXPIRÉS :
  • 290152Z AUTO 07012KT 10SM CLR 08/M02 A2978 RMK AO2 SLP095 T00781017
  • 290052Z AUTO 07010KT 10SM CLR 10/M03 A2976 RMK AO2 SLP090 T01001028

TAF KMBG
Valide du 29 à 02h jusqu'au 30 à 00h UTC


290130Z 2902/2924 07010KT P6SM SKC
FM290400 VRB03KT P6SM FEW250



MET'MAP, la Météo Aéronautique d'un coup d'oeil ! - Copyright ORBIFLY Décembre 2007 - Disclaimer

ORBIFLY MET'MAP TEAM :

Programmation & Développement : Alexandra Zaïnal
Sur une idée originale de : Baudouin d'Aumeries
Assistance à la programmation : Marc-Olivier Méhu
Soutien technique & logistique : Manuel Goepfert

Contact : metmap@orbifly.com




SOURCES & CREDITS :

   NOAA       Earth
Advisory